This is the latest recevied weather packets stored in our database for station/object WX4SGA. If no packets are shown the sender has not sent any weather packets the latest 1 day(s).
| Time | Temp. | Humidity | Pressure | Rain* | Wind** | Luminosity | Snow |
|---|---|---|---|---|---|---|---|
| 1778024050 | 26.67° C | 49% | 1015.2 hPa | 0 mm | 0 m/s | 25 W/m² | - |
| 1778023747 | 26.67° C | 47% | 1015.2 hPa | 0 mm | 0.45 m/s, 66° | 26 W/m² | - |
| 1778023445 | 26.67° C | 47% | 1014.9 hPa | 0 mm | 0 m/s | 31 W/m² | - |
| 1778023141 | 27.22° C | 47% | 1014.9 hPa | 0 mm | 0.45 m/s, 75° | 32 W/m² | - |
| 1778022838 | 27.22° C | 46% | 1014.9 hPa | 0 mm | 0 m/s | 35 W/m² | - |
| 1778022537 | 27.78° C | 46% | 1014.9 hPa | 0 mm | 0 m/s | 40 W/m² | - |
| 1778022234 | 27.22° C | 45% | 1015.2 hPa | 0 mm | 0 m/s | 43 W/m² | - |
| 1778021930 | 27.78° C | 48% | 1015.2 hPa | 0 mm | 0.45 m/s, 40° | 54 W/m² | - |
| 1778021628 | 27.78° C | 42% | 1015.2 hPa | 0 mm | 0.45 m/s, 347° | 56 W/m² | - |
| 1778021322 | 27.78° C | 41% | 1015.2 hPa | 0 mm | 0.89 m/s, 9° | 64 W/m² | - |
| 1778021021 | 27.78° C | 45% | 1015.2 hPa | 0 mm | 0.89 m/s, 25° | 76 W/m² | - |
| 1778020717 | 27.78° C | 42% | 1015.2 hPa | 0 mm | 0.45 m/s, 60° | 86 W/m² | - |
| 1778020414 | 28.33° C | 45% | 1015.2 hPa | 0 mm | 0 m/s | 70 W/m² | - |
| 1778020110 | 28.33° C | 42% | 1014.9 hPa | 0 mm | 0 m/s | 66 W/m² | - |
| 1778019806 | 28.89° C | 41% | 1015.2 hPa | 0 mm | 0.45 m/s, 60° | 60 W/m² | - |
| 1778019504 | 28.89° C | 41% | 1015.2 hPa | 0 mm | 0.45 m/s, 1° | 116 W/m² | - |
| 1778019200 | 28.89° C | 40% | 1015.2 hPa | 0 mm | 0.45 m/s, 23° | 218 W/m² | - |
| 1778018897 | 29.44° C | 39% | 1015.2 hPa | 0 mm | 0.45 m/s, 293° | 266 W/m² | - |
| 1778018594 | 29.44° C | 39% | 1015.2 hPa | 0 mm | 0.45 m/s, 276° | 269 W/m² | - |
| 1778018293 | 30° C | 40% | 1015.2 hPa | 0 mm | 0.45 m/s, 14° | 250 W/m² | - |
| 1778017990 | 29.44° C | 39% | 1015.2 hPa | 0 mm | 0.45 m/s, 9° | 264 W/m² | - |
| 1778017688 | 29.44° C | 40% | 1015.2 hPa | 0 mm | 0.45 m/s, 336° | 312 W/m² | - |
| 1778017385 | 29.44° C | 42% | 1015.2 hPa | 0 mm | 0.45 m/s, 64° | 323 W/m² | - |
| 1778017082 | 29.44° C | 39% | 1015.2 hPa | 0 mm | 0.45 m/s, 113° | 343 W/m² | - |
| 1778016780 | 30° C | 39% | 1015.2 hPa | 0 mm | 1.79 m/s, 163° | 352 W/m² | - |
* Rain latest hour (hover to see other rain measurements)
** Current wind speed in m/s (hover to see current wind gust speed)